Precipitable_Water
0.34 0.40 0.44 0.69 1.02 0.88 0.86 0.87 0.85 0.96 1.11 1.02 1.01 1.07 1.04 1.21 1.31 1.27 1.29 1.27 1.28 1.30 1.42 1.41 1.32 1.54 1.64 1.73 1.80 1.83 1.80 1.82 1.72 1.61 1.59 1.51 1.68 1.86 1.94 1.78 1.76 1.67 1.60 1.55
0.34 0.33 0.63 0.79 0.78 0.79 0.87 0.83 0.81 1.00 1.11 1.01 0.93 1.04 1.11 1.12 1.13 1.30 1.35 1.34 1.31 1.38 1.39 1.35 1.29 1.39 1.57 1.64 1.72 1.79 1.77 1.78 1.66 1.53 1.63 1.69 1.82 1.95 1.94 1.89 1.84 1.66 1.66 1.62
0.35 0.50 0.79 0.75 0.65 0.69 0.80 0.80 0.71 0.82 1.13 1.00 0.89 0.80 0.94 1.09 1.15 1.19 1.43 1.47 1.43 1.47 1.35 1.39 1.29 1.27 1.36 1.53 1.66 1.72 1.73 1.74 1.66 1.60 1.69 1.84 1.90 1.84 1.68 1.74 1.64 1.72 1.70 1.68
0.38 0.59 0.69 0.68 0.57 0.59 0.61 0.85 0.72 0.82 0.70 0.51 0.85 0.59 0.80 0.89 0.97 1.07 1.13 1.28 1.37 1.43 1.43 1.39 1.44 1.24 1.18 1.23 1.55 1.67 1.68 1.71 1.63 1.65 1.75 1.81 1.73 1.64 1.61 1.74 1.75 1.73 1.83 1.67
0.32 0.39 0.39 0.42 0.42 0.50 0.50 0.77 0.66 0.50 0.46 0.62 0.66 0.60 0.70 0.84 0.86 0.91 1.09 1.22 1.28 1.37 1.46 1.43 1.44 1.34 1.28 1.15 1.28 1.51 1.61 1.57 1.51 1.58 1.79 1.74 1.67 1.69 1.68 1.87 1.81 1.83 1.84 1.83
0.29 0.36 0.33 0.32 0.34 0.36 0.41 0.46 0.49 0.47 0.48 0.49 0.64 0.72 0.68 0.75 0.73 0.88 0.92 1.16 1.24 1.39 1.34 1.39 1.52 1.52 1.37 1.44 1.33 1.22 1.40 1.46 1.53 1.59 1.73 1.75 1.60 1.62 1.68 1.78 1.66 1.66 1.77 1.75
0.23 0.26 0.29 0.33 0.26 0.28 0.29 0.32 0.32 0.36 0.42 0.49 0.67 0.68 0.82 0.86 0.86 0.90 0.83 0.87 1.12 1.25 1.28 1.35 1.40 1.41 1.51 1.47 1.38 1.37 1.30 1.28 1.38 1.51 1.64 1.73 1.76 1.72 1.71 1.70 1.64 1.69 1.75 1.80
0.26 0.25 0.29 0.32 0.29 0.28 0.37 0.35 0.29 0.29 0.39 0.41 0.64 0.57 0.69 0.88 1.02 1.00 0.94 1.12 1.24 1.21 1.17 1.23 1.36 1.43 1.61 1.53 1.52 1.58 1.56 1.32 1.33 1.34 1.45 1.57 1.65 1.72 1.78 1.80 1.77 1.81 1.68 1.70
0.31 0.31 0.36 0.35 0.34 0.32 0.36 0.35 0.40 0.38 0.42 0.41 0.56 0.69 0.84 1.06 0.98 0.96 0.96 1.04 1.12 1.14 1.14 1.16 1.25 1.37 1.48 1.53 1.52 1.58 1.60 1.60 1.50 1.31 1.37 1.41 1.52 1.56 1.61 1.71 1.78 1.73 1.70 1.65
0.38 0.31 0.36 0.36 0.37 0.34 0.32 0.37 0.32 0.36 0.29 0.35 0.49 0.65 0.57 0.78 0.83 0.81 0.82 0.88 0.93 1.09 1.10 1.08 1.12 1.27 1.39 1.49 1.61 1.76 1.73 1.70 1.68 1.59 1.37 1.33 1.43 1.48 1.51 1.61 1.68 1.68 1.67 1.64
0.39 0.37 0.39 0.40 0.34 0.30 0.28 0.32 0.37 0.38 0.36 0.32 0.36 0.48 0.78 0.74 0.77 0.84 0.85 1.00 1.05 0.99 1.06 1.13 1.20 1.23 1.25 1.41 1.53 1.65 1.79 1.82 1.81 1.76 1.61 1.42 1.44 1.49 1.53 1.60 1.60 1.76 1.79 1.68
0.42 0.36 0.34 0.42 0.46 0.48 0.43 0.40 0.38 0.30 0.32 0.44 0.46 0.49 0.83 0.79 0.85 0.89 0.95 1.06 1.09 1.12 1.13 1.10 1.08 1.25 1.29 1.35 1.42 1.44 1.50 1.48 1.76 1.89 1.88 1.67 1.50 1.54 1.53 1.53 1.57 1.69 1.75 1.78
0.45 0.33 0.30 0.36 0.49 0.59 0.54 0.55 0.53 0.43 0.39 0.36 0.36 0.51 0.78 0.81 0.79 0.86 0.91 0.99 1.03 1.15 1.15 1.11 0.99 1.02 1.23 1.25 1.31 1.36 1.35 1.42 1.62 1.93 1.93 1.91 1.72 1.64 1.61 1.61 1.67 1.66 1.58 1.57
0.50 0.42 0.35 0.37 0.44 0.55 0.56 0.59 0.59 0.50 0.40 0.41 0.46 0.53 0.67 0.69 0.71 0.75 0.82 0.94 1.09 1.18 1.07 1.09 1.13 1.15 1.15 1.27 1.31 1.33 1.34 1.40 1.55 1.81 1.95 1.88 1.81 1.75 1.67 1.67 1.64 1.65 1.62 1.65
0.52 0.40 0.41 0.45 0.46 0.56 0.57 0.63 0.65 0.51 0.50 0.41 0.52 0.47 0.49 0.61 0.70 0.72 0.78 0.83 0.90 0.95 1.00 1.01 1.08 1.17 1.22 1.22 1.27 1.33 1.41 1.45 1.59 1.67 1.81 1.85 1.95 1.90 1.87 1.82 1.67 1.62 1.59 1.52
0.59 0.44 0.43 0.37 0.45 0.47 0.52 0.56 0.49 0.45 0.42 0.42 0.41 0.41 0.52 0.59 0.64 0.66 0.68 0.69 0.69 0.72 0.79 0.85 1.04 1.23 1.35 1.33 1.32 1.37 1.43 1.62 1.74 1.70 1.76 1.91 2.02 2.13 2.03 2.00 1.95 1.71 1.67 1.65
0.58 0.53 0.47 0.35 0.39 0.44 0.42 0.51 0.49 0.45 0.44 0.42 0.36 0.42 0.49 0.58 0.62 0.63 0.65 0.68 0.69 0.81 0.82 0.98 1.15 1.28 1.37 1.42 1.34 1.35 1.40 1.52 1.51 1.55 1.65 1.76 1.98 2.05 2.07 2.11 1.81 1.87 1.72 1.75
0.63 0.57 0.53 0.45 0.49 0.33 0.45 0.55 0.61 0.55 0.54 0.55 0.51 0.48 0.47 0.50 0.56 0.61 0.67 0.68 0.79 0.91 0.93 1.07 1.23 1.34 1.48 1.37 1.22 1.28 1.40 1.44 1.45 1.48 1.53 1.62 1.67 1.86 2.06 2.08 2.07 1.99 1.89 1.86
0.66 0.59 0.50 0.47 0.47 0.52 0.50 0.54 0.58 0.54 0.51 0.53 0.49 0.48 0.52 0.56 0.57 0.62 0.73 0.81 0.86 0.95 1.05 1.11 1.27 1.34 1.29 1.23 1.24 1.32 1.40 1.43 1.43 1.43 1.49 1.54 1.65 1.64 1.85 1.94 2.01 2.04 2.05 2.07
0.66 0.64 0.57 0.47 0.43 0.41 0.54 0.63 0.66 0.65 0.48 0.66 0.63 0.58 0.58 0.59 0.46 0.69 0.93 1.00 1.03 1.14 1.20 1.19 1.26 1.25 1.20 1.21 1.28 1.25 1.29 1.35 1.38 1.44 1.51 1.59 1.64 1.68 1.81 1.93 2.00 2.01 2.00 2.03
0.55 0.59 0.56 0.52 0.45 0.54 0.61 0.67 0.67 0.46 0.52 0.73 0.72 0.70 0.69 0.64 0.74 0.92 1.01 1.09 1.20 1.24 1.27 1.31 1.26 1.10 1.08 1.19 1.25 1.22 1.26 1.26 1.39 1.47 1.57 1.63 1.68 1.74 1.85 1.99 2.13 2.10 2.11 2.10
0.51 0.53 0.49 0.50 0.42 0.44 0.68 0.65 0.58 0.66 0.75 0.77 0.79 0.80 0.84 0.84 0.88 0.94 1.02 1.13 1.19 1.17 1.17 1.15 1.03 1.01 1.13 1.21 1.23 1.21 1.21 1.34 1.39 1.41 1.44 1.52 1.61 1.71 1.80 1.81 1.93 1.99 2.01 2.01
0.49 0.66 0.58 0.58 0.54 0.72 0.85 0.86 0.89 0.77 0.68 0.75 0.79 0.80 0.72 0.85 0.86 0.95 0.91 0.97 1.05 1.08 1.08 1.06 1.02 1.15 1.23 1.30 1.32 1.20 1.24 1.30 1.32 1.34 1.39 1.46 1.53 1.60 1.69 1.73 1.78 1.80 1.73 1.88
0.74 0.75 0.63 0.64 0.70 0.74 0.84 0.90 0.90 0.78 0.73 0.78 0.76 0.77 0.82 0.81 0.94 0.99 0.94 0.94 1.06 1.17 1.22 1.27 1.31 1.27 1.35 1.40 1.36 1.36 1.33 1.29 1.36 1.36 1.41 1.45 1.46 1.53 1.64 1.74 1.74 1.81 1.81 1.79
0.76 0.80 0.73 0.71 0.78 0.78 0.90 0.94 0.97 0.81 0.79 0.80 0.92 0.97 0.90 0.97 1.02 1.01 0.95 0.99 1.05 1.13 1.22 1.33 1.35 1.44 1.46 1.44 1.36 1.43 1.41 1.40 1.28 1.32 1.37 1.40 1.47 1.48 1.54 1.62 1.67 1.75 1.82 1.84
0.79 0.76 0.74 0.64 0.82 0.84 0.88 1.08 1.12 0.83 0.75 0.88 0.95 0.90 0.98 0.98 0.90 0.92 0.81 0.89 1.03 1.30 1.53 1.48 1.43 1.42 1.43 1.39 1.41 1.47 1.52 1.51 1.39 1.27 1.32 1.35 1.44 1.46 1.45 1.45 1.51 1.65 1.71 1.74
Wind_Speed
10 9 7 7 5 6 3 5 5 7 5 4 3 1 2 7 8 8 11 9 6 8 8 6 5 6 8 11 13 14 15 16 15 14 13 12 12 8 8 6 10 8 6 6
9 11 9 7 5 8 8 5 5 9 9 4 3 3 6 5 8 10 11 11 7 9 7 8 7 7 8 11 13 13 15 16 15 15 13 13 10 9 9 9 9 7 6 6
9 6 12 8 6 5 8 11 9 3 10 1 1 5 7 6 7 9 9 12 12 11 6 9 9 8 8 9 12 13 14 17 16 15 13 12 11 9 10 9 8 7 6 6
9 8 14 12 10 9 6 10 10 8 7 7 10 5 6 4 4 8 8 12 12 11 11 12 10 9 8 9 11 13 15 15 16 14 13 13 12 11 10 9 9 7 6 6
11 8 10 11 9 9 11 16 11 9 10 4 8 6 7 3 7 9 11 8 13 11 11 12 12 12 10 10 11 13 13 14 14 14 12 12 12 10 9 9 10 10 7 6
12 11 10 12 11 11 10 8 8 8 9 5 5 4 8 5 6 7 10 13 12 12 12 12 11 12 13 12 11 13 14 14 14 14 13 12 13 12 10 10 9 10 8 7
6 10 9 7 10 9 10 6 6 4 4 6 6 3 11 5 5 1 10 12 12 12 14 13 12 13 13 13 14 12 14 15 15 15 16 15 14 13 12 11 11 10 9 8
8 8 11 8 9 8 8 7 7 5 3 5 4 5 6 9 10 6 5 7 9 10 13 13 14 15 14 13 15 15 14 14 15 16 16 16 15 14 13 13 12 11 10 9
4 9 9 8 5 9 9 9 9 8 8 5 4 2 2 12 10 6 6 6 9 8 11 11 13 17 16 17 14 15 15 15 15 16 17 16 16 16 15 14 14 13 11 11
7 3 5 6 4 8 8 8 4 4 3 2 2 7 6 10 9 7 5 6 5 5 7 8 9 14 16 18 18 17 16 17 18 17 17 18 17 17 16 15 15 14 12 10
9 5 6 4 4 6 5 6 9 6 4 3 2 4 2 6 7 8 7 8 7 5 5 7 9 12 14 16 18 20 17 17 18 19 18 18 18 18 18 17 16 15 13 13
11 9 5 11 10 8 8 10 7 6 7 4 3 6 3 2 3 4 7 7 5 5 6 5 6 8 13 15 16 18 16 18 22 22 20 20 19 19 19 19 19 17 16 14
12 9 9 8 7 5 5 8 9 9 8 8 7 8 6 7 5 3 4 6 7 7 7 9 10 11 10 14 15 18 19 19 21 23 22 21 22 21 21 20 20 20 18 17
11 11 11 9 10 11 11 15 14 10 7 8 8 8 10 14 11 11 12 12 10 10 10 10 10 11 14 16 18 19 21 21 20 24 24 23 23 25 24 22 21 21 20 19
13 14 13 14 11 9 11 13 11 7 7 5 11 8 12 11 11 12 11 11 12 14 16 17 18 17 16 17 18 19 20 22 22 23 24 25 26 26 26 25 23 22 21 20
13 15 15 17 16 15 14 18 16 13 14 12 11 11 10 11 11 11 13 13 16 17 18 18 16 14 13 15 15 17 19 20 22 22 24 26 27 27 28 27 25 23 22 20
15 14 13 16 17 19 15 14 12 13 11 12 13 10 7 10 12 14 15 15 16 15 16 14 13 14 14 14 16 19 20 21 23 25 26 28 29 29 32 33 25 26 25 23
16 14 14 15 15 18 17 15 15 14 16 13 10 10 12 13 13 14 16 17 15 15 15 14 15 14 14 16 17 18 20 22 24 24 25 26 27 29 28 26 27 28 27 26
18 16 15 15 16 18 15 14 12 8 8 10 11 12 12 13 14 16 17 15 16 14 13 12 13 14 15 16 16 16 17 19 22 25 25 26 26 27 28 28 28 29 28 28
20 21 15 14 15 14 14 15 15 13 14 12 10 10 11 12 13 15 13 14 13 12 13 13 13 14 16 16 17 17 18 18 19 20 22 23 23 24 26 30 31 32 34 35
24 21 23 17 15 19 18 15 15 15 15 11 10 12 13 14 15 14 13 12 12 12 13 13 14 15 15 15 15 15 16 18 19 21 20 20 20 20 21 22 25 27 28 29
25 21 23 21 18 17 18 23 19 15 13 13 12 12 13 13 12 12 12 13 14 14 14 13 13 12 12 11 10 11 12 14 17 19 21 21 20 19 19 18 22 22 23 31
21 22 25 22 19 17 12 13 16 13 12 12 13 14 16 12 11 11 12 14 15 15 14 13 12 11 11 11 10 10 9 10 11 12 15 18 18 19 20 19 19 21 19 13
18 19 24 26 22 18 17 16 16 13 12 13 13 12 9 9 9 10 11 11 12 13 14 14 13 12 10 9 9 9 7 4 3 3 6 10 13 14 13 14 15 16 16 16
19 21 21 25 24 22 20 15 14 12 11 10 9 8 7 7 7 7 7 10 13 17 17 17 15 13 10 8 7 6 7 5 2 1 3 3 4 6 8 7 7 9 11 11
20 20 17 30 25 23 22 21 17 13 11 9 7 5 5 5 4 3 4 8 12 9 12 11 10 11 11 10 8 7 6 6 5 5 5 4 5 5 7 7 6 8 8 8
Wind_Direction
228 223 227 211 232 243 256 228 214 241 211 184 165 14 294 225 231 235 216 195 200 187 176 176 159 158 162 170 173 179 183 183 185 189 190 189 186 190 189 207 189 197 202 209
241 227 208 200 252 222 225 286 238 239 212 162 95 325 280 251 230 235 221 215 189 179 184 183 168 160 166 174 180 183 182 182 184 183 184 187 199 208 205 193 199 204 213 217
230 235 198 205 214 195 212 243 266 182 163 184 144 338 284 260 238 239 223 219 211 201 199 179 178 178 168 176 183 182 186 187 188 190 196 204 208 208 205 208 209 217 221 227
239 195 192 209 229 231 221 234 262 166 200 265 250 296 306 266 222 233 233 208 203 208 208 200 196 186 182 181 178 183 182 186 191 196 203 207 206 201 212 210 216 223 226 227
240 246 243 241 259 225 248 220 248 278 256 259 271 289 277 197 240 228 231 213 207 207 201 202 207 195 189 180 182 180 183 190 193 198 202 202 202 207 207 219 224 219 230 225
244 251 268 245 257 248 254 265 272 265 268 264 253 296 280 235 227 261 224 225 219 215 203 204 205 200 198 197 193 194 197 199 204 207 207 208 208 214 223 223 217 223 232 233
229 239 252 250 250 247 235 251 260 309 305 250 235 249 259 221 184 255 197 219 209 212 205 212 211 208 205 206 205 199 205 208 211 213 215 216 219 222 222 224 225 231 234 237
244 264 244 236 233 222 210 206 220 225 236 269 197 265 263 193 170 160 166 191 213 217 207 215 220 216 215 210 212 218 214 212 216 219 220 221 222 223 227 231 230 232 241 241
267 312 195 219 230 212 239 230 243 255 267 291 283 310 125 166 196 215 225 220 188 192 208 218 223 217 217 214 220 217 214 221 222 224 224 225 225 227 232 234 235 235 243 240
250 245 222 183 225 246 246 242 252 267 276 207 284 182 206 194 191 183 195 192 186 204 214 225 220 216 225 226 233 225 227 229 226 227 227 227 227 228 230 232 232 234 236 229
233 242 215 203 231 232 230 224 230 240 237 216 231 289 252 198 208 197 223 193 197 217 224 231 226 226 226 231 228 230 243 233 229 228 229 230 229 229 230 232 233 232 231 230
229 229 252 248 239 227 221 243 216 205 248 245 230 243 171 124 149 240 174 193 218 235 233 237 239 240 236 238 236 240 236 249 234 231 233 233 231 230 232 233 233 232 231 232
221 235 256 268 223 241 248 268 269 257 253 256 233 233 236 227 235 218 231 230 245 244 261 266 257 253 256 243 243 238 236 243 239 231 233 232 233 230 231 232 233 233 233 234
226 243 227 243 234 241 262 263 268 249 249 254 235 235 252 250 247 248 245 259 256 249 273 265 268 265 263 258 250 246 248 246 237 231 232 234 234 230 230 230 231 231 231 232
231 238 247 245 262 233 222 228 238 255 256 231 224 241 253 248 242 245 246 251 257 266 270 271 272 272 268 263 258 253 247 239 236 234 235 237 236 232 231 229 231 230 230 231
246 245 251 250 251 260 251 236 245 252 262 259 255 266 258 242 245 250 255 261 269 274 274 272 266 266 265 267 259 256 248 245 242 242 242 242 239 238 234 230 233 230 229 230
243 244 247 248 247 249 253 248 254 250 254 254 250 238 249 244 252 257 263 269 273 279 280 274 264 261 269 265 263 259 254 250 248 249 249 249 247 247 248 220 231 229 229 231
239 235 244 252 259 245 247 256 262 251 251 243 244 254 258 259 260 269 267 269 269 273 270 265 261 263 268 271 269 262 256 253 250 250 251 252 251 247 243 240 235 230 232 233
244 238 252 241 248 263 245 245 236 241 261 243 246 266 268 265 271 278 271 267 265 268 264 263 257 263 271 274 270 263 260 255 253 251 251 252 252 249 244 243 239 236 235 235
241 226 236 235 241 245 235 241 238 248 246 250 256 271 274 274 276 276 272 261 258 258 259 263 266 271 275 274 268 264 261 258 256 254 251 250 250 249 248 245 243 241 239 240
238 231 225 234 235 243 253 259 237 229 240 251 263 272 280 279 277 265 267 265 259 257 260 264 270 276 275 273 269 264 260 259 258 254 250 247 246 248 247 247 243 240 237 234
236 234 239 241 236 250 255 249 226 233 241 247 260 274 277 276 273 264 262 266 261 259 260 266 272 269 267 268 266 264 264 266 262 255 247 243 243 245 245 245 247 238 240 239
232 233 227 227 233 246 255 254 221 229 236 255 267 279 281 266 263 263 263 264 264 259 260 261 257 258 261 261 258 261 267 275 271 257 244 239 239 244 244 245 245 243 249 248
239 244 237 233 232 237 244 253 233 236 248 261 271 282 267 255 259 265 273 266 261 258 257 258 250 249 250 252 253 247 246 268 285 260 237 232 233 235 235 241 243 239 228 224
236 243 239 232 231 240 242 243 249 238 251 260 264 261 249 244 258 266 274 279 273 270 260 251 242 236 236 241 235 225 223 225 212 158 157 155 176 195 204 207 204 192 197 204
233 235 240 233 230 231 231 235 260 235 244 246 240 237 237 231 223 255 293 319 314 276 241 208 214 222 227 220 209 209 202 196 183 152 158 144 149 154 168 173 173 176 188 189